Regional Weather Roundup
Issued by NWS

Home | Current Version | Previous Version | Text Only | Print | Product List | Glossary Off
Versions: 1 2 3 4 5 6 7 8 9 10 11 12 13 14 15 16 17 18 19 20 21 22 23 24 25 26 27 28 29 30 31 32 33 34 35 36 37 38 39 40 41 42 43 44 45 46 47 48 49 50

000
ASUS43 KLOT 030500
RWRIL

ILLINOIS REGIONAL WEATHER ROUNDUP
NATIONAL WEATHER SERVICE CHICAGO/ROMEOVILLE IL
1100 PM CST MON MAR 02 2015

NOTE: "FAIR" INDICATES FEW OR NO CLOUDS BELOW 12,000 FEET WITH NO
SIGNIFICANT WEATHER AND/OR OBSTRUCTIONS TO VISIBILITY.

* THESE STATIONS ARE NOT UNDER NWS QUALITY CONTROL. THEY ALSO MAY NOT
  REPORT WEATHER SUCH AS PRECIPITATION OR FOG.

ILZ001-002-007-009-015-016-024-030600-
NORTHWEST ILLINOIS

CITY           SKY/WX    TMP DP  RH WIND       PRES   REMARKS
MOLINE         FAIR      27  18  69 SE9       30.21F WCI  18
STERLING*      CLOUDY    25  19  80 SE7       30.22F WCI  17
$$

ILZ003-004-008-010-011-017-018-030600-
NORTH CENTRAL ILLINOIS

CITY           SKY/WX    TMP DP  RH WIND       PRES   REMARKS
ROCKFORD       CLOUDY    24  16  71 SE8       30.24F WCI  15
FREEPORT*      CLOUDY    24  17  76 SE7       30.23F WCI  16
$$

ILZ005-006-012>014-019>023-030600-
NORTHEAST ILLINOIS

CITY           SKY/WX    TMP DP  RH WIND       PRES   REMARKS
CHICAGO-OHARE  CLOUDY    25  15  66 S6        30.26F WCI  18
CHICAGO-MIDWAY CLOUDY    28  14  55 S7        30.27F WCI  21
AURORA         CLOUDY    25  16  68 SE7       30.26F WCI  17
LANSING*       CLOUDY    26  17  67 SE5       30.29F WCI  20
WAUKEGAN       CLOUDY    26  16  65 S8        30.25F WCI  18
DUPAGE AIRPORT CLOUDY    25  16  68 SE8       30.25F WCI  16
WHEELING       CLOUDY    27  13  55 S8        30.28F WCI  19
NORTHERLY ISL    N/A     27  14  58 S6          N/A  WCI  21
$$

LMZ740>746-030600-
SOUTHERN LAKE MICHIGAN

STATION/POSITION SKY/WX   TEMP    WIND        PRES    VSBY  WAVE
                          AIR SEA DIR/SP/G                  HT/PER
                          (F)     (DEG/KT/KT) (MB)    (MI)  (FT/S)
WAUKEGAN HARBOR            27     210/ 16/ 34   N/A
HARRISON CRIB              27     180/ 11/ 13   N/A
BURNHAM HARBOR             27     160/  5/ 11   N/A
CALUMET HARBOR             27                 1024.6F
MICHIGAN CITY              26     150/  6/  9   N/A
$$

ILZ025>027-034>036-040-047-049-050-058-095>099-030600-
WEST-CENTRAL ILLINOIS

CITY           SKY/WX    TMP DP  RH WIND       PRES   REMARKS
QUINCY         MIX PCPN  29  19  66 SE12      30.17F WCI  19
MACOMB*        FAIR      27  22  83 SE9       30.22F WCI  17
$$

ILZ028>032-037-038-041>044-048-051>054-059>061-030600-
CENTRAL ILLINOIS

CITY           SKY/WX    TMP DP  RH WIND       PRES   REMARKS
DECATUR        FAIR      25  18  74 SE9       30.23F WCI  15
PEORIA         FAIR      28  16  60 SE9       30.23F WCI  19
SPRINGFIELD    MOCLDY    28  19  69 SE7       30.26R WCI  21
TAYLORVILLE    NOT AVBL
$$

ILZ033-039-045-046-055>057-062-063-030600-
EAST-CENTRAL ILLINOIS

CITY           SKY/WX    TMP DP  RH WIND       PRES   REMARKS
CHAMPAIGN      FAIR      24  18  77 E9        30.24F WCI  14
MATTOON        FAIR      25  17  72 SE7       30.23F WCI  17
$$

ILZ079-100>102-030600-
SOUTHWEST ILLINOIS

CITY           SKY/WX    TMP DP  RH WIND       PRES   REMARKS
BELLEVILLE     CLOUDY    30  22  70 SE7       30.24F WCI  23
CAHOKIA*       CLOUDY    31  21  66 SE10      30.23F WCI  22
$$

ILZ064>066-069>071-074>076-080>082-084>086-088>090-092>094-030600-
SOUTH-CENTRAL ILLINOIS

CITY           SKY/WX    TMP DP  RH WIND       PRES   REMARKS
CARBONDALE     CLOUDY    33  23  66 CALM      30.27R
MT. VERNON     CLOUDY    30  19  64 CALM      30.28R
$$

ILZ067-068-072-073-078-083-087-091-030600-
SOUTHEAST ILLINOIS

CITY           SKY/WX    TMP DP  RH WIND       PRES   REMARKS
LAWRENCEVILLE  FAIR      25  17  72 E6        30.28F WCI  18
$$

ABBREVIATIONS USED IN REMARKS
   TC - TEMPERATURE IN CELSIUS
  WCI - WIND CHILL INDEX
   HX - HEAT INDEX
  VSB - VISIBILITY
$$




USA.gov is the U.S. government's official web portal to all federal, state and local government web resources and services.